Location: Emerald Isle
(34.6779°N, 76.9508°W)
Time: 20:25:00
(UTC-05:00)

Envisat - Visible Passes

Search period start: 23 January 2018 00:00
Search period end: 02 February 2018 00:00
Orbit: 764 x 766 km, 98.2° (Epoch: 23 January)

Date Brightness Start Highest point End Pass type
(mag) Time Alt. Az. Time Alt. Az. Time Alt. Az.
23 Jan 5.0 18:36:31 11° NNE 18:36:31 11° NNE 18:36:41 10° NNE visible
23 Jan 5.4 20:16:42 13° NNW 20:16:42 13° NNW 20:17:17 10° NNW visible
24 Jan 4.8 19:39:16 19° N 19:39:16 19° N 19:40:39 10° N visible
25 Jan 4.6 19:01:50 17° NNE 19:01:50 17° NNE 19:03:21 10° NNE visible
25 Jan 5.7 20:42:01 12° NW 20:42:01 12° NW 20:42:23 10° NW visible
26 Jan 4.9 18:24:23 10° NE 18:24:23 10° NE 18:24:39 10° NE visible
26 Jan 4.9 20:04:35 21° NNW 20:04:35 21° NNW 20:06:15 10° NNW visible
27 Jan 4.3 19:27:07 26° NNE 19:27:07 26° NNE 19:29:25 10° N visible
28 Jan 4.4 18:49:40 19° NE 18:49:40 19° NE 18:51:52 10° NNE visible
28 Jan 5.2 20:29:51 20° NW 20:29:51 20° NW 20:31:31 10° NNW visible
29 Jan 4.1 19:52:22 33° NNW 19:52:22 33° NNW 19:55:09 10° NNW visible
30 Jan 3.8 19:14:53 31° NE 19:14:53 31° NE 19:18:08 10° N visible
30 Jan 5.6 20:55:05 15° WNW 20:55:05 15° WNW 20:56:17 10° NW visible
31 Jan 4.4 18:37:25 17° ENE 18:37:25 17° ENE 18:40:16 10° NNE visible
31 Jan 4.4 20:17:36 32° NW 20:17:36 32° NW 20:20:34 10° NNW visible
01 Feb 3.3 19:40:06 51° NNE 19:40:06 51° NNE 19:44:00 10° N visible
